Terug naar catalogus

STARLINK-30124

ActiefCommunicatieVLEO
NORAD 56690·PAYLOAD·🇺🇸 United States

Gelanceerd May 19, 2023 vanaf Cape Canaveral Space Force Station

Loading…

Volgende Passages (komende 24 uur)

TLE

VersSource: CelesTrak SupGP

Epoch: Sep 15, 2026, 02:14 UTC

1 56690C 23067C   26258.09354167  .00021016  00000+0  76124-3 0  2582
2 56690  43.0022 291.6766 0001598 265.6269 184.6155 15.27566754    14

Volg STARLINK-30124 in realtime met AllMySat

Download on the App Store